User: anonymous
Location: Albany
(35.0000°S, 118.0000°E)
Time: 10:35:09
(UTC-04:00)
Language:

Cosmos 1758 Rocket - Orbit

View from above orbital plane
View from above orbital plane
View from above satellite
View from above satellite

Ground track
Ground track

The orbit data is extracted from the following two-line orbital elements,

1 16792U 86046B   14232.11933565  .00000207  00000-0  22539-4 0  5444
2 16792 082.4809 093.2668 0026008 091.3911 024.4558 14.82598701521924
Epoch (UTC): 20 August 2014 02:51:50
Eccentricity: 0.0026008
inclination: 82.4809°
perigee height: 603 km
apogee height: 639 km
right ascension of ascending node: 93.2668°
argument of perigee: 91.3911°
revolutions per day: 14.82598701
mean anomaly at epoch: 24.4558°
orbit number at epoch: 52192

The dashed part of the orbit path shows where the satellite is in the earth's shadow,  

DLR